When you browse on this site, cookies collect data to enhance your experience and personalize the content and advertising you see.
Visit our Privacy Policy to learn more. By continuing to use the site, you agree to this use of cookies and data.
EN

Hourly Weather Hadynow

Today, 8 August, Saturday

Time Temperature Precipitation Wind Pressure Humidity
00:00 +20°C° 0 mm 2 mps 753 mmHg 83%
01:00 +20°C° 0 mm 2 mps 753 mmHg 85%
02:00 +20°C° 0 mm 2 mps 753 mmHg 86%
03:00 +19°C° 0 mm 2 mps 753 mmHg 88%
04:00 +19°C° 0 mm 2 mps 753 mmHg 89%
05:00 +19°C° 0 mm 2 mps 753 mmHg 91%
06:00 +20°C° 0 mm 2 mps 753 mmHg 87%
07:00 +21°C° 0 mm 3 mps 753 mmHg 84%
08:00 +22°C° 0 mm 3 mps 753 mmHg 80%
09:00 +25°C° 0 mm 3 mps 753 mmHg 73%
10:00 +27°C° 0 mm 3 mps 753 mmHg 67%
11:00 +28°C° 0 mm 3 mps 753 mmHg 61%
12:00 +29°C° 0 mm 3 mps 753 mmHg 57%
13:00 +29°C° 0 mm 2 mps 752 mmHg 54%
14:00 +30°C° 0 mm 2 mps 752 mmHg 50%
15:00 +30°C° 0 mm 2 mps 752 mmHg 50%
16:00 +30°C° 0 mm 2 mps 751 mmHg 50%
17:00 +30°C° 0 mm 1 mps 751 mmHg 50%
18:00 +29°C° 0 mm 1 mps 751 mmHg 55%
19:00 +27°C° 0 mm 1 mps 751 mmHg 60%
20:00 +26°C° 0 mm 2 mps 751 mmHg 66%
21:00 +25°C° 0 mm 2 mps 751 mmHg 69%
22:00 +24°C° 0 mm 2 mps 751 mmHg 72%
23:00 +23°C° 0 mm 2 mps 751 mmHg 76%

Tomorrow, 9 August, Sunday

Time Temperature Precipitation Wind Pressure Humidity
00:00 +23°C° 0 mm 1 mps 751 mmHg 78%
01:00 +22°C° 0 mm 1 mps 750 mmHg 81%
02:00 +22°C° 0 mm 1 mps 750 mmHg 84%
03:00 +21°C° 0.1 mm 1 mps 750 mmHg 86%
04:00 +21°C° 0.1 mm 1 mps 750 mmHg 87%
05:00 +20°C° 0.1 mm 1 mps 750 mmHg 89%
06:00 +22°C° 0.1 mm 1 mps 750 mmHg 85%
07:00 +23°C° 0.1 mm 1 mps 750 mmHg 81%
08:00 +24°C° 0.1 mm 1 mps 750 mmHg 77%
09:00 +25°C° 0.5 mm 1 mps 750 mmHg 72%
10:00 +27°C° 0.5 mm 1 mps 750 mmHg 66%
11:00 +28°C° 0.5 mm 1 mps 750 mmHg 61%
12:00 +28°C° 0.2 mm 2 mps 750 mmHg 58%
13:00 +29°C° 0.2 mm 2 mps 750 mmHg 56%
14:00 +29°C° 0.2 mm 2 mps 750 mmHg 54%
15:00 +29°C° 0.1 mm 2 mps 749 mmHg 54%
16:00 +29°C° 0.1 mm 2 mps 749 mmHg 55%
17:00 +29°C° 0.1 mm 2 mps 749 mmHg 55%
18:00 +27°C° 0.3 mm 2 mps 748 mmHg 62%
19:00 +26°C° 0.3 mm 2 mps 748 mmHg 68%
20:00 +24°C° 0.3 mm 2 mps 748 mmHg 75%
21:00 +23°C° 0.8 mm 2 mps 748 mmHg 78%
22:00 +23°C° 0.8 mm 1 mps 748 mmHg 82%
23:00 +22°C° 0.8 mm 1 mps 749 mmHg 85%

Day after tomorrow, 10 August, Monday

Time Temperature Precipitation Wind Pressure Humidity
00:00 +21°C° 0.1 mm 1 mps 748 mmHg 87%
01:00 +21°C° 0.1 mm 1 mps 748 mmHg 89%
02:00 +20°C° 0.1 mm 1 mps 748 mmHg 91%
03:00 +19°C° 0 mm 2 mps 748 mmHg 91%
04:00 +19°C° 0 mm 2 mps 748 mmHg 92%
05:00 +18°C° 0 mm 2 mps 748 mmHg 93%
06:00 +20°C° 0 mm 2 mps 748 mmHg 90%
07:00 +21°C° 0 mm 2 mps 748 mmHg 86%
08:00 +23°C° 0 mm 2 mps 748 mmHg 82%
09:00 +24°C° 0.2 mm 2 mps 748 mmHg 76%
10:00 +26°C° 0.2 mm 3 mps 748 mmHg 70%
11:00 +27°C° 0.2 mm 3 mps 749 mmHg 64%
12:00 +28°C° 0.2 mm 3 mps 748 mmHg 60%
13:00 +28°C° 0.2 mm 3 mps 748 mmHg 56%
14:00 +29°C° 0.2 mm 3 mps 748 mmHg 52%
15:00 +29°C° 0 mm 3 mps 748 mmHg 53%
16:00 +28°C° 0 mm 3 mps 748 mmHg 54%
17:00 +28°C° 0 mm 3 mps 748 mmHg 55%
18:00 +26°C° 0.2 mm 3 mps 748 mmHg 63%
19:00 +25°C° 0.2 mm 3 mps 748 mmHg 70%
20:00 +23°C° 0.2 mm 2 mps 748 mmHg 78%
21:00 +21°C° 0.1 mm 3 mps 748 mmHg 81%
22:00 +20°C° 0.1 mm 3 mps 748 mmHg 84%
23:00 +20°C° 0.1 mm 3 mps 748 mmHg 88%

11 August, Tuesday

Time Temperature Precipitation Wind Pressure Humidity
00:00 +19°C° 0 mm 3 mps 748 mmHg 89%
01:00 +19°C° 0 mm 3 mps 748 mmHg 90%
02:00 +18°C° 0 mm 3 mps 748 mmHg 91%
03:00 +18°C° 0 mm 3 mps 748 mmHg 92%
04:00 +17°C° 0 mm 3 mps 748 mmHg 93%
05:00 +17°C° 0 mm 2 mps 748 mmHg 94%
06:00 +18°C° 0 mm 3 mps 748 mmHg 88%
07:00 +19°C° 0 mm 3 mps 749 mmHg 83%
08:00 +20°C° 0 mm 3 mps 749 mmHg 78%
09:00 +22°C° 0 mm 3 mps 749 mmHg 71%
10:00 +23°C° 0 mm 4 mps 749 mmHg 64%
11:00 +26°C° 0 mm 4 mps 749 mmHg 57%
12:00 +26°C° 0 mm 4 mps 749 mmHg 54%
13:00 +26°C° 0 mm 5 mps 749 mmHg 51%
14:00 +27°C° 0 mm 5 mps 749 mmHg 49%
15:00 +26°C° 0 mm 5 mps 749 mmHg 49%
16:00 +26°C° 0 mm 5 mps 749 mmHg 50%
17:00 +26°C° 0 mm 5 mps 748 mmHg 50%
18:00 +23°C° 0 mm 4 mps 749 mmHg 58%
19:00 +22°C° 0 mm 4 mps 749 mmHg 66%
20:00 +20°C° 0 mm 4 mps 749 mmHg 74%
21:00 +19°C° 0 mm 4 mps 749 mmHg 75%
22:00 +18°C° 0 mm 3 mps 749 mmHg 75%
23:00 +16°C° 0 mm 3 mps 749 mmHg 76%

12 August, Wednesday

Time Temperature Precipitation Wind Pressure Humidity
00:00 +16°C° 0 mm 3 mps 749 mmHg 78%
01:00 +14°C° 0 mm 3 mps 749 mmHg 81%
02:00 +13°C° 0 mm 3 mps 749 mmHg 83%
03:00 +13°C° 0 mm 3 mps 749 mmHg 84%
04:00 +13°C° 0 mm 2 mps 749 mmHg 85%
05:00 +13°C° 0 mm 2 mps 749 mmHg 86%
06:00 +13°C° 0 mm 3 mps 750 mmHg 83%
07:00 +14°C° 0 mm 3 mps 750 mmHg 80%
08:00 +16°C° 0 mm 3 mps 750 mmHg 76%
09:00 +18°C° 0 mm 3 mps 750 mmHg 70%
10:00 +19°C° 0 mm 3 mps 750 mmHg 64%
11:00 +21°C° 0 mm 3 mps 750 mmHg 57%
12:00 +21°C° 0 mm 4 mps 750 mmHg 54%
13:00 +22°C° 0 mm 4 mps 750 mmHg 50%
14:00 +23°C° 0 mm 4 mps 750 mmHg 46%
15:00 +22°C° 0 mm 4 mps 750 mmHg 49%
16:00 +22°C° 0 mm 4 mps 750 mmHg 51%
17:00 +21°C° 0 mm 5 mps 750 mmHg 54%
18:00 +19°C° 0 mm 4 mps 750 mmHg 60%
19:00 +18°C° 0 mm 3 mps 750 mmHg 66%
20:00 +16°C° 0 mm 2 mps 750 mmHg 72%
21:00 +15°C° 0 mm 2 mps 750 mmHg 73%
22:00 +15°C° 0 mm 2 mps 750 mmHg 74%
23:00 +14°C° 0 mm 2 mps 750 mmHg 75%

13 August, Thursday

Time Temperature Precipitation Wind Pressure Humidity
00:00 +13°C° 0 mm 2 mps 750 mmHg 78%
01:00 +13°C° 0 mm 1 mps 750 mmHg 81%
02:00 +13°C° 0 mm 1 mps 750 mmHg 83%
03:00 +12°C° 0 mm 1 mps 750 mmHg 85%
04:00 +12°C° 0 mm 1 mps 750 mmHg 87%
05:00 +12°C° 0 mm 2 mps 750 mmHg 89%
06:00 +13°C° 0 mm 2 mps 750 mmHg 83%
07:00 +14°C° 0 mm 2 mps 750 mmHg 77%
08:00 +16°C° 0 mm 2 mps 750 mmHg 71%
09:00 +17°C° 0 mm 2 mps 750 mmHg 66%
10:00 +18°C° 0 mm 2 mps 750 mmHg 60%
11:00 +20°C° 0 mm 2 mps 750 mmHg 54%
12:00 +20°C° 0 mm 2 mps 750 mmHg 52%
13:00 +22°C° 0 mm 1 mps 750 mmHg 49%
14:00 +23°C° 0 mm 1 mps 750 mmHg 47%
15:00 +23°C° 0 mm 1 mps 750 mmHg 47%
16:00 +23°C° 0 mm 1 mps 749 mmHg 46%
17:00 +23°C° 0 mm 2 mps 749 mmHg 46%
18:00 +20°C° 0 mm 2 mps 749 mmHg 53%
19:00 +19°C° 0 mm 2 mps 749 mmHg 59%
20:00 +17°C° 0 mm 2 mps 749 mmHg 66%
21:00 +16°C° 0 mm 3 mps 749 mmHg 69%
22:00 +14°C° 0 mm 3 mps 749 mmHg 73%
23:00 +13°C° 0 mm 3 mps 749 mmHg 76%
Show more